Find Starlink 3533

NORAD ID: 51715 Int'l Des: 2022-016 Owner: SPXS Country: US Constellation: starlink operational
LEOCIRCULAR

現在のビュー

3D地球を読み込み中...

About Starlink 3533

Starlink 3533 (NORAD 51715) is a starlink constellation satellite (v1.5) launched Feb 21, 2022 by SPXS of US. It operates in LEO, CIRCULAR orbit with a mass of 297.00 kg.

Starlink 3533について

説明を読み込み中...

次回通過

Passes for default location (London). Set your location on the main map for personalized predictions.

高度履歴

Loading altitude history...

軌道要素

1 51715U 22016B 26173.83335648 .00009436 00000-0 46993-3 0 9995
2 51715 53.1594 216.8062 0000556 162.0302 150.5954 15.18243535 5835
Epoch: Jun 22, 2026 • Age: 26 hours

現在のステータス

高度 515.8 km
速度 7.61 km/s
衛星直下点 -18.46°S, 158.43°E
打ち上げ日 Feb 21, 2022
運用期間 4.3 years
タイプ internet

技術仕様

分類 Payload
質量 297.00 kg
乾燥質量 275.00 kg
総質量 297.00 kg
長さ 0.20 m
直径 2.80 m
スパン 9.00 m
形状 Box + pan
製造者 SPXS
バスタイプ Starlink
フェーズステータス In Orbit
所有者/国 SPXS/US

Most Searched